Location: ČR
(50.0000°N, 15.0000°E)
Time: 21:58:03
(UTC+00:00)

Vanguard 3 - Pass Details

Date: 29 October 2021
Orbit: 508 x 3260 km, 33.4° (Epoch: 04 December)

Event Time Altitude Azimuth Distance (km) Brightness Sun altitude
Rises 18:21:35 0° 249° (WSW) 3,646 11.4 -26.1°
Reaches altitude 10° 18:24:43 10° 230° (SW) 3,058 10.6 -26.6°
Maximum altitude 18:29:44 18° 190° (S) 3,026 10.0 -27.4°
Enters shadow 18:34:18 14° 161° (SSE) 3,840 10.3 -28.1°
Drops below altitude 10° 18:36:36 10° 152° (SSE) 4,398 - -28.5°
Sets 18:42:34 0° 138° (SE) 5,982 - -29.4°
